Precipitable_Water
0.56 0.56 0.55 0.54 0.53 0.52 0.52 0.54 0.54 0.56 0.56 0.56 0.55 0.54 0.53 0.53 0.51 0.50 0.49 0.47 0.46 0.45 0.45 0.45 0.45 0.46 0.46 0.46 0.47 0.48 0.48 0.38 0.30 0.27 0.22 0.19 0.21 0.25 0.25 0.32 0.33 0.45 0.60 0.56 0.60 0.53 0.43 0.49 0.64 0.84 0.93 0.96 0.98 0.96 1.19 1.24 1.34 1.28 0.96 0.86 0.81 0.95 0.95 1.15 1.13 1.20 1.36 1.22 1.23 1.27 1.31 1.19 1.07 1.13 1.12 1.18 1.05 1.03 1.05 1.03 1.11 1.17 1.19 1.19 1.20 1.31 1.39 1.45
0.55 0.55 0.54 0.54 0.53 0.52 0.51 0.52 0.53 0.55 0.56 0.56 0.55 0.55 0.54 0.54 0.53 0.52 0.51 0.50 0.49 0.47 0.47 0.47 0.46 0.46 0.47 0.47 0.47 0.48 0.42 0.33 0.25 0.26 0.23 0.41 0.37 0.29 0.27 0.28 0.29 0.46 0.61 0.47 0.43 0.43 0.38 0.39 0.61 0.83 0.86 0.80 1.04 0.92 1.16 1.08 1.35 1.02 0.95 0.91 0.79 1.00 1.11 1.29 1.34 1.39 1.34 1.27 1.28 1.33 1.36 1.28 1.19 1.17 1.14 0.93 0.90 0.94 0.92 0.99 1.06 1.03 1.13 1.23 1.24 1.32 1.35 1.40
0.54 0.55 0.54 0.54 0.53 0.52 0.51 0.51 0.52 0.53 0.55 0.56 0.56 0.55 0.54 0.54 0.53 0.52 0.52 0.51 0.51 0.50 0.50 0.48 0.47 0.47 0.46 0.48 0.48 0.48 0.37 0.25 0.26 0.23 0.46 0.63 0.54 0.44 0.32 0.34 0.32 0.52 0.51 0.41 0.43 0.43 0.37 0.38 0.62 0.80 0.82 0.78 0.93 0.87 1.05 1.13 1.19 1.14 0.98 0.83 0.92 1.15 1.22 1.32 1.43 1.47 1.52 1.47 1.29 1.32 1.35 1.33 1.30 1.23 1.24 0.92 0.85 0.91 0.85 0.87 0.96 0.96 0.98 1.10 1.17 1.29 1.32 1.35
0.53 0.54 0.53 0.53 0.53 0.53 0.51 0.50 0.51 0.52 0.53 0.55 0.55 0.55 0.55 0.54 0.53 0.52 0.52 0.51 0.50 0.50 0.50 0.49 0.48 0.47 0.48 0.48 0.49 0.48 0.33 0.24 0.15 0.38 0.47 0.63 0.60 0.51 0.37 0.35 0.40 0.53 0.50 0.48 0.47 0.44 0.43 0.41 0.62 0.84 0.80 0.74 0.83 0.97 0.88 1.11 0.93 1.13 1.01 0.88 0.99 1.22 1.20 1.40 1.55 1.59 1.61 1.54 1.36 1.36 1.39 1.30 1.36 1.29 1.16 0.96 0.81 0.82 0.90 0.98 0.91 0.91 0.99 1.08 1.16 1.23 1.30 1.31
0.51 0.52 0.52 0.52 0.52 0.53 0.52 0.51 0.50 0.51 0.51 0.53 0.53 0.53 0.53 0.52 0.52 0.52 0.52 0.51 0.51 0.50 0.50 0.49 0.49 0.48 0.48 0.50 0.49 0.45 0.22 0.13 0.22 0.37 0.49 0.61 0.56 0.47 0.38 0.39 0.47 0.44 0.43 0.43 0.42 0.43 0.40 0.40 0.59 0.78 0.75 0.67 0.78 0.88 0.91 1.03 1.13 1.05 0.97 1.12 1.17 1.27 1.24 1.47 1.63 1.68 1.64 1.58 1.41 1.40 1.29 1.27 1.46 1.32 1.16 1.00 0.76 0.73 0.86 1.00 1.07 1.07 1.09 1.10 1.11 1.21 1.31 1.30
0.49 0.50 0.50 0.51 0.52 0.52 0.51 0.51 0.50 0.49 0.49 0.50 0.51 0.51 0.51 0.51 0.51 0.53 0.53 0.53 0.53 0.52 0.51 0.50 0.50 0.49 0.50 0.50 0.48 0.36 0.17 0.12 0.36 0.35 0.67 0.65 0.52 0.42 0.42 0.45 0.49 0.38 0.39 0.38 0.36 0.36 0.35 0.44 0.63 0.63 0.60 0.68 0.72 0.75 0.94 0.99 1.10 0.79 1.03 1.11 1.24 1.33 1.29 1.55 1.67 1.67 1.64 1.46 1.38 1.35 1.43 1.45 1.33 1.24 1.23 1.12 0.95 0.94 1.06 1.10 1.13 1.16 1.20 1.23 1.26 1.26 1.25 1.27
0.49 0.48 0.49 0.49 0.50 0.50 0.50 0.50 0.50 0.49 0.48 0.48 0.49 0.49 0.51 0.52 0.52 0.52 0.52 0.53 0.53 0.53 0.53 0.53 0.51 0.53 0.51 0.50 0.44 0.26 0.12 0.25 0.41 0.55 0.74 0.62 0.46 0.43 0.50 0.48 0.46 0.35 0.32 0.32 0.34 0.30 0.33 0.44 0.58 0.56 0.57 0.66 0.77 0.79 0.83 0.86 0.98 0.86 0.84 1.10 1.19 1.35 1.40 1.59 1.63 1.67 1.56 1.46 1.40 1.53 1.57 1.37 1.32 1.13 1.26 1.08 1.09 1.08 1.08 1.14 1.17 1.22 1.27 1.26 1.21 1.28 1.25 1.25
0.49 0.48 0.47 0.48 0.48 0.49 0.49 0.50 0.49 0.49 0.48 0.47 0.48 0.51 0.52 0.52 0.52 0.52 0.53 0.54 0.54 0.54 0.55 0.55 0.54 0.53 0.54 0.40 0.22 0.13 0.18 0.27 0.50 0.76 0.75 0.62 0.53 0.53 0.49 0.42 0.38 0.34 0.28 0.26 0.31 0.29 0.33 0.40 0.47 0.57 0.57 0.67 0.73 0.72 0.78 0.74 0.88 0.82 0.86 1.10 1.19 1.35 1.46 1.62 1.62 1.58 1.53 1.51 1.58 1.56 1.41 1.35 1.38 1.28 1.26 1.10 1.12 1.16 1.08 1.14 1.19 1.21 1.23 1.22 1.23 1.25 1.26 1.26
0.50 0.48 0.46 0.46 0.47 0.48 0.49 0.49 0.49 0.49 0.47 0.48 0.50 0.52 0.53 0.52 0.52 0.54 0.54 0.54 0.54 0.55 0.56 0.57 0.55 0.56 0.56 0.41 0.18 0.13 0.24 0.46 0.67 0.77 0.74 0.59 0.55 0.51 0.45 0.34 0.34 0.30 0.28 0.27 0.31 0.33 0.31 0.35 0.47 0.56 0.56 0.70 0.76 0.62 0.67 0.67 0.66 0.91 0.98 1.14 1.19 1.25 1.40 1.55 1.53 1.55 1.53 1.53 1.58 1.44 1.38 1.43 1.43 1.43 1.22 1.20 1.17 1.20 1.16 1.13 1.17 1.19 1.17 1.16 1.19 1.24 1.25 1.26
0.51 0.48 0.46 0.45 0.45 0.47 0.48 0.48 0.49 0.48 0.47 0.50 0.52 0.52 0.53 0.53 0.54 0.54 0.54 0.55 0.56 0.57 0.59 0.59 0.59 0.59 0.46 0.31 0.18 0.14 0.36 0.59 0.66 0.76 0.69 0.60 0.55 0.50 0.44 0.39 0.32 0.28 0.25 0.25 0.25 0.31 0.30 0.33 0.43 0.60 0.75 0.72 0.72 0.56 0.67 0.67 0.72 1.04 1.12 1.16 1.15 1.27 1.37 1.49 1.45 1.50 1.57 1.53 1.57 1.39 1.36 1.38 1.48 1.33 1.08 1.28 1.23 1.22 1.13 1.09 1.17 1.14 1.11 1.15 1.17 1.24 1.27 1.24
0.54 0.48 0.46 0.44 0.44 0.45 0.47 0.48 0.48 0.47 0.48 0.51 0.52 0.53 0.54 0.54 0.55 0.55 0.55 0.56 0.58 0.61 0.63 0.62 0.61 0.58 0.38 0.30 0.13 0.16 0.43 0.53 0.61 0.68 0.65 0.60 0.52 0.46 0.43 0.41 0.35 0.29 0.24 0.23 0.20 0.28 0.35 0.37 0.42 0.63 0.76 0.58 0.61 0.71 0.80 0.86 0.98 1.01 1.04 1.11 1.15 1.26 1.35 1.40 1.47 1.48 1.54 1.45 1.56 1.48 1.38 1.45 1.45 1.31 1.18 1.24 1.28 1.22 1.08 1.08 1.12 1.11 1.11 1.14 1.18 1.21 1.25 1.25
0.56 0.49 0.46 0.43 0.43 0.45 0.46 0.47 0.46 0.46 0.50 0.51 0.52 0.55 0.55 0.55 0.55 0.55 0.56 0.58 0.60 0.64 0.65 0.67 0.65 0.57 0.44 0.26 0.15 0.22 0.53 0.54 0.56 0.62 0.60 0.55 0.51 0.49 0.51 0.47 0.39 0.33 0.26 0.20 0.21 0.24 0.33 0.42 0.52 0.69 0.57 0.64 0.67 0.82 0.87 1.08 0.99 1.02 1.06 0.86 0.98 1.15 1.13 1.30 1.29 1.42 1.49 1.42 1.59 1.55 1.36 1.27 1.30 1.16 1.32 1.33 1.30 1.18 1.09 1.08 1.09 1.07 1.10 1.16 1.20 1.20 1.20 1.21
0.57 0.49 0.45 0.43 0.43 0.44 0.46 0.46 0.46 0.46 0.50 0.52 0.55 0.55 0.55 0.55 0.55 0.57 0.58 0.59 0.63 0.68 0.69 0.68 0.67 0.57 0.36 0.12 0.15 0.38 0.52 0.59 0.51 0.57 0.56 0.54 0.56 0.55 0.55 0.53 0.44 0.37 0.31 0.22 0.21 0.23 0.29 0.43 0.67 0.69 0.66 0.55 0.60 0.62 1.09 1.11 1.01 1.05 1.03 0.94 0.92 1.02 1.03 1.26 1.38 1.44 1.43 1.50 1.59 1.53 0.96 1.08 1.22 1.31 1.34 1.38 1.24 1.16 1.07 1.06 1.07 1.05 1.06 1.14 1.17 1.15 1.17 1.22
0.57 0.49 0.45 0.43 0.43 0.44 0.45 0.45 0.45 0.47 0.51 0.55 0.55 0.55 0.54 0.55 0.58 0.61 0.63 0.61 0.67 0.71 0.70 0.71 0.64 0.54 0.34 0.13 0.23 0.41 0.49 0.48 0.46 0.44 0.47 0.53 0.49 0.47 0.50 0.52 0.46 0.39 0.33 0.25 0.22 0.25 0.26 0.44 0.70 0.69 0.67 0.53 0.65 1.07 0.98 1.03 1.07 0.81 0.94 1.00 0.84 0.81 0.82 1.17 1.23 1.37 1.32 1.58 1.58 1.52 0.99 1.07 1.22 1.31 1.37 1.37 1.29 1.11 1.00 1.04 1.04 1.02 1.03 1.09 1.14 1.12 1.11 1.16
0.56 0.49 0.45 0.43 0.43 0.43 0.44 0.44 0.45 0.50 0.53 0.54 0.53 0.52 0.55 0.59 0.62 0.64 0.67 0.68 0.70 0.71 0.70 0.73 0.68 0.49 0.31 0.25 0.38 0.46 0.56 0.54 0.40 0.39 0.46 0.42 0.41 0.39 0.42 0.47 0.41 0.37 0.33 0.29 0.24 0.25 0.27 0.44 0.60 0.60 0.53 0.66 0.77 0.71 0.74 0.82 0.89 0.90 0.71 0.66 0.86 0.76 0.86 1.05 1.30 1.35 1.23 1.48 1.60 1.41 1.03 1.09 1.20 1.30 1.38 1.40 1.33 1.19 1.03 1.02 1.02 0.99 0.99 1.04 1.09 1.08 1.07 1.10
0.55 0.49 0.45 0.44 0.43 0.43 0.44 0.45 0.48 0.52 0.54 0.52 0.50 0.54 0.62 0.66 0.67 0.68 0.69 0.72 0.73 0.71 0.70 0.61 0.58 0.49 0.33 0.25 0.35 0.63 0.48 0.39 0.38 0.43 0.48 0.44 0.41 0.34 0.43 0.42 0.36 0.33 0.31 0.25 0.26 0.25 0.26 0.39 0.50 0.55 0.55 0.62 0.61 0.59 0.61 0.63 0.70 0.82 0.70 0.67 0.71 0.82 0.83 0.92 1.18 1.43 1.48 1.46 1.51 1.37 1.05 1.15 1.19 1.35 1.39 1.43 1.36 1.24 1.10 1.04 1.03 1.02 0.99 1.01 1.04 1.04 1.04 1.06
0.54 0.49 0.45 0.44 0.43 0.44 0.45 0.47 0.50 0.53 0.54 0.54 0.58 0.65 0.69 0.70 0.72 0.72 0.75 0.77 0.75 0.73 0.65 0.48 0.58 0.57 0.26 0.39 0.55 0.44 0.39 0.44 0.48 0.45 0.43 0.45 0.43 0.39 0.38 0.35 0.27 0.26 0.24 0.19 0.21 0.23 0.24 0.34 0.51 0.53 0.57 0.51 0.60 0.59 0.44 0.42 0.52 0.63 0.80 0.69 0.80 0.75 0.82 0.77 1.11 1.33 1.43 1.41 1.25 1.37 1.19 1.19 1.28 1.35 1.37 1.40 1.36 1.25 1.13 1.06 1.06 1.05 1.03 1.02 1.02 1.01 1.00 1.03
0.53 0.49 0.46 0.45 0.45 0.47 0.48 0.49 0.51 0.56 0.59 0.62 0.65 0.70 0.69 0.76 0.80 0.80 0.77 0.75 0.73 0.66 0.62 0.67 0.56 0.42 0.31 0.43 0.33 0.36 0.46 0.44 0.46 0.46 0.46 0.45 0.42 0.38 0.36 0.31 0.26 0.24 0.20 0.14 0.17 0.18 0.27 0.29 0.43 0.38 0.48 0.51 0.53 0.52 0.35 0.34 0.47 0.58 0.65 0.66 0.69 0.80 0.86 0.84 0.87 1.15 1.31 1.38 1.27 1.28 1.21 1.21 1.28 1.34 1.35 1.38 1.37 1.25 1.14 1.07 1.05 1.05 1.05 1.02 0.99 0.96 0.99 1.02
0.53 0.49 0.47 0.46 0.47 0.49 0.50 0.52 0.56 0.60 0.64 0.68 0.71 0.78 0.80 0.82 0.79 0.74 0.63 0.61 0.48 0.37 0.34 0.32 0.32 0.26 0.22 0.31 0.40 0.44 0.45 0.47 0.49 0.44 0.34 0.37 0.37 0.39 0.37 0.34 0.30 0.21 0.16 0.13 0.13 0.19 0.34 0.34 0.41 0.36 0.32 0.41 0.45 0.49 0.45 0.60 0.62 0.59 0.63 0.67 0.73 0.70 0.79 0.84 1.04 1.26 1.28 1.21 1.19 1.18 1.10 1.17 1.25 1.28 1.31 1.36 1.37 1.25 1.17 1.13 1.07 1.08 1.08 1.03 0.98 0.93 0.97 1.00
0.53 0.50 0.48 0.47 0.49 0.52 0.53 0.56 0.60 0.62 0.66 0.65 0.66 0.68 0.66 0.46 0.42 0.40 0.59 0.56 0.41 0.36 0.34 0.35 0.41 0.38 0.37 0.37 0.35 0.41 0.49 0.47 0.40 0.38 0.42 0.48 0.40 0.36 0.33 0.31 0.28 0.25 0.18 0.13 0.15 0.21 0.39 0.32 0.31 0.29 0.32 0.41 0.50 0.55 0.62 0.69 0.74 0.73 0.72 0.66 0.66 0.69 0.82 1.00 1.07 1.28 1.37 1.22 1.17 1.19 1.20 1.20 1.23 1.27 1.29 1.33 1.35 1.28 1.18 1.08 1.02 1.03 1.04 1.01 0.95 0.90 0.95 0.99
0.55 0.51 0.49 0.49 0.50 0.53 0.54 0.57 0.62 0.64 0.68 0.67 0.63 0.52 0.39 0.40 0.34 0.30 0.40 0.41 0.46 0.46 0.40 0.39 0.39 0.35 0.32 0.37 0.41 0.38 0.35 0.35 0.40 0.35 0.41 0.50 0.45 0.36 0.30 0.29 0.22 0.19 0.18 0.19 0.17 0.28 0.38 0.32 0.33 0.36 0.42 0.42 0.47 0.60 0.66 0.70 0.75 0.74 0.68 0.63 0.63 0.69 0.71 0.97 1.02 1.27 1.37 1.14 1.13 1.25 1.22 1.20 1.24 1.29 1.31 1.35 1.29 1.20 1.14 1.06 1.00 0.99 1.02 1.01 0.94 0.88 0.91 1.00
0.55 0.52 0.49 0.49 0.50 0.52 0.54 0.58 0.62 0.65 0.70 0.65 0.58 0.45 0.46 0.48 0.56 0.58 0.51 0.35 0.41 0.46 0.46 0.43 0.44 0.38 0.42 0.42 0.44 0.45 0.41 0.32 0.32 0.36 0.44 0.42 0.39 0.29 0.30 0.29 0.22 0.17 0.22 0.23 0.22 0.24 0.27 0.29 0.36 0.46 0.46 0.44 0.45 0.49 0.61 0.63 0.66 0.71 0.68 0.66 0.58 0.67 0.82 0.99 1.06 1.19 1.30 1.17 1.11 1.21 1.13 1.16 1.24 1.29 1.33 1.32 1.27 1.27 1.23 1.13 1.03 0.98 0.99 0.99 0.95 0.87 0.90 0.99
0.54 0.52 0.50 0.49 0.49 0.52 0.53 0.58 0.62 0.66 0.65 0.55 0.49 0.49 0.47 0.55 0.62 0.64 0.59 0.46 0.38 0.47 0.44 0.45 0.40 0.39 0.37 0.44 0.44 0.48 0.34 0.31 0.29 0.33 0.36 0.37 0.35 0.30 0.30 0.24 0.23 0.21 0.22 0.23 0.19 0.21 0.22 0.31 0.41 0.47 0.46 0.43 0.42 0.42 0.46 0.52 0.60 0.62 0.65 0.58 0.56 0.74 0.65 0.65 0.95 1.12 1.23 1.17 1.11 1.18 1.08 1.13 1.25 1.32 1.33 1.38 1.33 1.32 1.33 1.25 1.13 1.04 0.99 0.96 0.92 0.86 0.86 0.92
0.54 0.52 0.50 0.48 0.48 0.50 0.54 0.56 0.63 0.64 0.59 0.54 0.52 0.52 0.59 0.61 0.61 0.62 0.53 0.38 0.36 0.42 0.45 0.44 0.45 0.41 0.41 0.38 0.48 0.44 0.34 0.33 0.36 0.31 0.42 0.37 0.30 0.33 0.29 0.26 0.24 0.21 0.20 0.23 0.23 0.24 0.27 0.32 0.41 0.44 0.44 0.42 0.38 0.38 0.39 0.40 0.39 0.52 0.55 0.57 0.62 0.67 0.70 0.70 0.85 1.04 1.17 1.24 1.26 1.20 1.05 1.03 1.12 1.12 1.20 1.34 1.39 1.33 1.33 1.30 1.17 1.08 1.07 1.06 1.03 0.95 0.91 0.93
0.54 0.52 0.50 0.47 0.45 0.52 0.53 0.57 0.52 0.53 0.58 0.55 0.53 0.61 0.64 0.61 0.62 0.65 0.52 0.41 0.39 0.36 0.49 0.44 0.46 0.44 0.49 0.59 0.56 0.41 0.40 0.39 0.38 0.39 0.40 0.38 0.31 0.25 0.26 0.30 0.25 0.20 0.21 0.24 0.25 0.24 0.28 0.36 0.37 0.37 0.40 0.41 0.38 0.35 0.36 0.39 0.37 0.49 0.63 0.64 0.67 0.67 0.70 0.79 0.89 0.95 0.98 0.94 1.11 1.06 0.83 0.84 1.04 1.08 1.09 1.23 1.27 1.24 1.34 1.28 1.16 1.05 1.01 1.01 0.95 0.90 0.93 1.00
0.54 0.52 0.49 0.45 0.46 0.49 0.55 0.43 0.49 0.55 0.51 0.45 0.53 0.62 0.64 0.61 0.63 0.68 0.51 0.31 0.23 0.29 0.34 0.30 0.44 0.37 0.54 0.44 0.48 0.45 0.42 0.34 0.43 0.40 0.43 0.42 0.43 0.32 0.29 0.26 0.26 0.21 0.21 0.22 0.24 0.26 0.28 0.34 0.36 0.33 0.34 0.37 0.37 0.34 0.37 0.39 0.36 0.41 0.57 0.83 0.81 0.80 0.79 0.78 0.80 0.83 0.79 0.75 1.02 1.17 0.82 0.75 1.02 1.02 1.06 1.13 1.17 1.19 1.31 1.29 1.21 1.08 0.99 0.94 0.91 0.89 0.91 0.96
0.53 0.52 0.49 0.44 0.45 0.50 0.40 0.36 0.54 0.52 0.41 0.46 0.58 0.63 0.63 0.63 0.70 0.66 0.43 0.24 0.21 0.30 0.29 0.35 0.39 0.37 0.45 0.42 0.45 0.44 0.32 0.36 0.51 0.48 0.43 0.44 0.38 0.39 0.27 0.24 0.25 0.25 0.26 0.25 0.21 0.21 0.27 0.30 0.32 0.33 0.32 0.31 0.31 0.29 0.34 0.38 0.35 0.35 0.69 0.82 0.85 0.82 0.79 0.78 0.84 0.86 0.82 1.06 1.12 1.14 1.04 0.83 0.82 0.97 1.12 1.14 1.09 1.13 1.20 1.26 1.23 1.09 0.97 0.90 0.90 0.91 0.92 0.95
0.53 0.51 0.48 0.44 0.43 0.49 0.43 0.48 0.45 0.41 0.42 0.53 0.64 0.64 0.62 0.65 0.70 0.64 0.39 0.17 0.16 0.33 0.28 0.32 0.37 0.48 0.44 0.44 0.47 0.40 0.39 0.46 0.40 0.42 0.47 0.44 0.45 0.39 0.32 0.28 0.25 0.25 0.26 0.22 0.15 0.24 0.23 0.23 0.25 0.27 0.28 0.27 0.26 0.28 0.34 0.36 0.33 0.45 0.72 0.89 0.86 0.88 0.85 0.80 0.71 0.74 0.85 0.84 0.77 0.96 1.12 0.84 0.82 1.00 1.14 1.15 1.00 1.05 1.13 1.21 1.21 1.11 0.98 0.91 0.91 0.92 0.93 0.97
0.52 0.49 0.47 0.43 0.43 0.48 0.53 0.47 0.44 0.39 0.53 0.63 0.64 0.60 0.63 0.69 0.64 0.45 0.28 0.16 0.26 0.30 0.39 0.30 0.46 0.43 0.41 0.43 0.40 0.41 0.40 0.43 0.35 0.45 0.49 0.48 0.47 0.41 0.33 0.32 0.32 0.30 0.30 0.26 0.19 0.22 0.24 0.23 0.26 0.27 0.27 0.24 0.26 0.27 0.30 0.34 0.34 0.62 0.78 0.87 0.93 0.91 0.86 0.82 0.73 0.76 0.79 0.73 0.62 0.79 0.96 0.76 0.77 0.96 1.03 1.14 1.04 0.97 1.07 1.20 1.22 1.13 0.99 0.92 0.91 0.92 0.95 1.00
0.52 0.48 0.44 0.42 0.42 0.42 0.46 0.52 0.44 0.55 0.62 0.66 0.58 0.61 0.68 0.63 0.48 0.29 0.21 0.15 0.30 0.21 0.29 0.30 0.32 0.32 0.37 0.35 0.35 0.40 0.40 0.41 0.47 0.48 0.50 0.42 0.43 0.45 0.42 0.44 0.34 0.33 0.30 0.32 0.27 0.27 0.31 0.35 0.32 0.27 0.25 0.26 0.28 0.30 0.29 0.31 0.42 0.66 0.74 0.72 0.79 0.80 0.77 0.77 0.77 0.77 0.70 0.55 0.62 0.81 0.90 0.84 0.66 0.85 0.93 0.95 0.97 1.05 1.10 1.20 1.26 1.21 1.08 0.97 0.95 0.94 0.95 0.99
0.51 0.47 0.42 0.42 0.31 0.39 0.42 0.35 0.46 0.59 0.65 0.60 0.59 0.60 0.57 0.46 0.29 0.20 0.15 0.20 0.32 0.27 0.32 0.27 0.26 0.33 0.32 0.32 0.32 0.38 0.40 0.42 0.45 0.45 0.43 0.45 0.43 0.42 0.41 0.34 0.39 0.31 0.29 0.28 0.26 0.27 0.28 0.29 0.29 0.29 0.31 0.34 0.34 0.35 0.40 0.42 0.48 0.52 0.57 0.59 0.63 0.66 0.73 0.66 0.66 0.72 0.48 0.46 0.68 0.85 0.86 0.92 0.64 0.75 0.97 1.08 1.17 1.15 1.10 1.12 1.19 1.17 1.08 0.98 0.93 0.95 0.96 1.00
0.49 0.44 0.42 0.37 0.39 0.47 0.35 0.37 0.53 0.66 0.60 0.59 0.56 0.51 0.47 0.27 0.29 0.19 0.18 0.36 0.20 0.26 0.27 0.27 0.29 0.28 0.31 0.34 0.34 0.35 0.36 0.41 0.45 0.44 0.40 0.40 0.36 0.34 0.36 0.28 0.30 0.22 0.20 0.21 0.21 0.27 0.23 0.24 0.28 0.28 0.32 0.33 0.36 0.33 0.44 0.49 0.51 0.48 0.47 0.49 0.47 0.50 0.47 0.41 0.50 0.38 0.40 0.42 0.70 0.83 0.91 0.81 0.75 0.86 1.00 1.08 1.14 1.19 1.20 1.17 1.18 1.17 1.11 1.03 0.95 0.95 0.97 1.01
0.47 0.41 0.39 0.39 0.42 0.39 0.41 0.49 0.58 0.59 0.58 0.56 0.49 0.49 0.35 0.22 0.16 0.23 0.24 0.28 0.21 0.31 0.29 0.35 0.28 0.28 0.29 0.31 0.31 0.35 0.42 0.36 0.43 0.43 0.42 0.40 0.35 0.35 0.36 0.31 0.32 0.27 0.21 0.26 0.23 0.22 0.22 0.25 0.25 0.34 0.31 0.39 0.33 0.27 0.37 0.37 0.42 0.43 0.37 0.45 0.44 0.38 0.34 0.29 0.37 0.45 0.46 0.55 0.71 0.75 0.93 0.73 0.86 0.95 1.07 1.05 1.15 1.22 1.25 1.25 1.25 1.22 1.15 1.08 0.98 0.97 0.98 1.01
0.44 0.39 0.33 0.38 0.40 0.42 0.48 0.54 0.55 0.59 0.52 0.52 0.45 0.41 0.29 0.21 0.19 0.34 0.26 0.29 0.28 0.35 0.33 0.30 0.30 0.29 0.29 0.28 0.31 0.36 0.32 0.41 0.42 0.42 0.42 0.36 0.34 0.31 0.33 0.31 0.30 0.28 0.25 0.27 0.21 0.23 0.20 0.18 0.24 0.29 0.27 0.40 0.34 0.29 0.30 0.30 0.35 0.36 0.47 0.48 0.48 0.43 0.35 0.30 0.37 0.31 0.35 0.46 0.63 0.85 0.72 0.65 0.65 0.78 1.11 1.17 1.22 1.27 1.30 1.32 1.31 1.29 1.24 1.19 1.12 1.02 1.01 1.01
0.42 0.39 0.39 0.40 0.41 0.46 0.50 0.53 0.55 0.62 0.52 0.46 0.39 0.32 0.22 0.21 0.25 0.23 0.24 0.27 0.31 0.31 0.29 0.33 0.29 0.27 0.27 0.31 0.34 0.37 0.36 0.35 0.43 0.41 0.41 0.37 0.33 0.33 0.31 0.31 0.34 0.31 0.30 0.22 0.26 0.26 0.25 0.26 0.32 0.39 0.46 0.49 0.38 0.44 0.46 0.42 0.41 0.52 0.58 0.60 0.49 0.42 0.46 0.34 0.49 0.46 0.47 0.49 0.53 0.67 0.63 0.78 0.77 1.11 1.21 1.26 1.28 1.27 1.32 1.32 1.34 1.31 1.29 1.25 1.20 1.10 1.02 1.01
0.40 0.36 0.39 0.30 0.34 0.45 0.50 0.53 0.57 0.58 0.47 0.42 0.34 0.28 0.23 0.26 0.24 0.29 0.27 0.34 0.31 0.28 0.28 0.28 0.29 0.27 0.26 0.27 0.34 0.34 0.41 0.35 0.40 0.40 0.39 0.39 0.39 0.34 0.36 0.36 0.36 0.34 0.32 0.24 0.31 0.25 0.26 0.26 0.35 0.38 0.44 0.48 0.45 0.48 0.46 0.44 0.26 0.47 0.55 0.45 0.49 0.63 0.52 0.49 0.54 0.62 0.60 0.53 0.47 0.70 0.67 0.77 0.96 0.99 1.09 1.15 1.17 1.21 1.28 1.30 1.33 1.33 1.32 1.27 1.20 1.16 1.07 1.04
0.34 0.37 0.26 0.34 0.39 0.52 0.54 0.55 0.55 0.49 0.46 0.38 0.32 0.26 0.30 0.31 0.33 0.32 0.38 0.32 0.31 0.31 0.27 0.23 0.25 0.23 0.23 0.24 0.29 0.32 0.36 0.39 0.39 0.37 0.34 0.41 0.34 0.37 0.35 0.36 0.39 0.38 0.36 0.33 0.32 0.35 0.26 0.29 0.36 0.37 0.41 0.53 0.60 0.60 0.59 0.52 0.54 0.53 0.40 0.52 0.67 0.72 0.70 0.57 0.43 0.53 0.48 0.39 0.45 0.58 0.54 0.61 0.67 0.63 1.05 1.07 1.06 1.14 1.20 1.24 1.29 1.35 1.34 1.25 1.21 1.21 1.16 1.08
0.35 0.31 0.35 0.34 0.44 0.54 0.56 0.54 0.50 0.46 0.41 0.34 0.30 0.32 0.39 0.31 0.37 0.35 0.36 0.34 0.34 0.30 0.26 0.24 0.26 0.27 0.25 0.25 0.26 0.30 0.35 0.31 0.35 0.37 0.34 0.39 0.34 0.43 0.38 0.36 0.40 0.38 0.39 0.40 0.32 0.36 0.34 0.27 0.33 0.39 0.47 0.65 0.68 0.63 0.55 0.64 0.70 0.54 0.52 0.74 0.51 0.47 0.45 0.61 0.57 0.38 0.36 0.33 0.40 0.52 0.61 0.63 0.67 0.69 0.90 0.94 0.99 1.06 1.13 1.23 1.27 1.30 1.32 1.28 1.24 1.23 1.23 1.18
0.36 0.30 0.25 0.39 0.54 0.56 0.54 0.56 0.48 0.41 0.35 0.29 0.32 0.28 0.37 0.36 0.39 0.36 0.37 0.36 0.35 0.30 0.26 0.27 0.25 0.29 0.27 0.26 0.28 0.31 0.34 0.29 0.35 0.35 0.33 0.39 0.33 0.41 0.40 0.38 0.36 0.39 0.40 0.41 0.35 0.37 0.37 0.28 0.32 0.41 0.48 0.68 0.74 0.60 0.41 0.52 0.67 0.69 0.71 0.68 0.78 0.67 0.59 0.53 0.56 0.60 0.45 0.40 0.40 0.46 0.55 0.51 0.71 0.78 0.89 0.91 1.01 1.07 1.11 1.16 1.20 1.29 1.33 1.33 1.29 1.24 1.24 1.22
0.32 0.28 0.29 0.50 0.58 0.57 0.57 0.53 0.43 0.39 0.33 0.28 0.33 0.33 0.39 0.33 0.35 0.37 0.38 0.35 0.31 0.30 0.27 0.26 0.29 0.26 0.28 0.28 0.30 0.29 0.33 0.34 0.35 0.36 0.36 0.39 0.35 0.42 0.38 0.43 0.37 0.38 0.39 0.41 0.38 0.41 0.36 0.36 0.29 0.38 0.52 0.63 0.53 0.62 0.54 0.53 0.50 0.51 0.56 0.58 0.66 0.63 0.75 0.71 0.72 0.59 0.48 0.42 0.44 0.44 0.44 0.53 0.77 1.00 0.97 0.99 1.04 1.09 1.12 1.11 1.19 1.27 1.33 1.37 1.34 1.28 1.27 1.26
0.41 0.32 0.34 0.56 0.60 0.60 0.57 0.44 0.33 0.30 0.31 0.38 0.40 0.38 0.37 0.33 0.36 0.35 0.37 0.37 0.33 0.34 0.31 0.29 0.30 0.27 0.28 0.27 0.29 0.32 0.32 0.34 0.36 0.34 0.36 0.37 0.36 0.33 0.40 0.42 0.43 0.38 0.40 0.40 0.37 0.40 0.35 0.35 0.29 0.36 0.43 0.43 0.49 0.66 0.63 0.63 0.68 0.64 0.60 0.57 0.58 0.55 0.55 0.50 0.52 0.68 0.59 0.50 0.45 0.44 0.44 0.60 0.91 1.11 1.08 1.06 1.11 1.12 1.16 1.16 1.16 1.24 1.31 1.36 1.39 1.35 1.32 1.29
0.33 0.27 0.35 0.55 0.65 0.61 0.48 0.31 0.31 0.38 0.36 0.34 0.35 0.39 0.37 0.43 0.36 0.34 0.33 0.33 0.32 0.31 0.33 0.29 0.31 0.28 0.28 0.27 0.28 0.30 0.31 0.33 0.35 0.34 0.37 0.35 0.38 0.37 0.40 0.47 0.45 0.44 0.38 0.36 0.36 0.43 0.40 0.40 0.34 0.32 0.35 0.37 0.41 0.56 0.69 0.71 0.78 0.79 0.69 0.61 0.65 0.64 0.64 0.55 0.47 0.52 0.56 0.56 0.61 0.58 0.50 0.57 1.00 1.14 1.14 1.13 1.13 1.15 1.19 1.19 1.19 1.24 1.30 1.35 1.41 1.42 1.39 1.35
0.36 0.33 0.51 0.62 0.65 0.58 0.43 0.32 0.37 0.34 0.34 0.39 0.45 0.44 0.45 0.40 0.35 0.37 0.31 0.31 0.28 0.29 0.30 0.29 0.30 0.28 0.31 0.27 0.27 0.24 0.28 0.30 0.35 0.34 0.35 0.38 0.40 0.42 0.43 0.47 0.48 0.45 0.43 0.39 0.41 0.44 0.47 0.36 0.33 0.34 0.41 0.45 0.49 0.55 0.67 0.71 0.69 0.67 0.68 0.69 0.59 0.52 0.58 0.57 0.59 0.63 0.51 0.53 0.48 0.52 0.45 0.59 0.96 1.14 1.16 1.18 1.19 1.19 1.22 1.23 1.22 1.26 1.30 1.35 1.39 1.42 1.42 1.38
0.42 0.43 0.49 0.66 0.68 0.60 0.40 0.28 0.27 0.30 0.35 0.42 0.43 0.42 0.46 0.41 0.38 0.35 0.31 0.30 0.27 0.26 0.26 0.29 0.30 0.31 0.28 0.31 0.28 0.24 0.30 0.25 0.34 0.35 0.36 0.40 0.38 0.47 0.47 0.49 0.50 0.45 0.41 0.39 0.37 0.44 0.32 0.40 0.36 0.32 0.31 0.34 0.39 0.48 0.54 0.64 0.64 0.58 0.57 0.67 0.66 0.61 0.58 0.64 0.65 0.63 0.49 0.51 0.53 0.49 0.41 0.58 0.95 1.15 1.15 1.17 1.18 1.16 1.18 1.25 1.29 1.25 1.31 1.35 1.38 1.44 1.45 1.43
0.44 0.47 0.50 0.61 0.70 0.59 0.41 0.41 0.34 0.32 0.35 0.38 0.40 0.38 0.39 0.40 0.41 0.38 0.33 0.29 0.30 0.27 0.27 0.27 0.28 0.30 0.29 0.34 0.31 0.31 0.31 0.28 0.29 0.37 0.38 0.37 0.38 0.46 0.46 0.49 0.52 0.48 0.51 0.52 0.49 0.51 0.41 0.41 0.37 0.29 0.27 0.25 0.25 0.29 0.34 0.43 0.55 0.62 0.63 0.66 0.69 0.63 0.57 0.60 0.49 0.51 0.43 0.52 0.53 0.48 0.48 0.72 0.96 1.09 1.06 1.08 1.12 1.14 1.20 1.24 1.30 1.34 1.34 1.36 1.40 1.43 1.46 1.45
0.39 0.28 0.47 0.55 0.63 0.58 0.53 0.57 0.52 0.41 0.38 0.39 0.38 0.41 0.41 0.35 0.38 0.39 0.36 0.31 0.30 0.28 0.28 0.30 0.32 0.32 0.29 0.31 0.29 0.30 0.30 0.34 0.31 0.33 0.35 0.35 0.38 0.42 0.46 0.50 0.51 0.48 0.50 0.52 0.52 0.53 0.46 0.48 0.45 0.40 0.36 0.34 0.40 0.48 0.64 0.67 0.67 0.58 0.63 0.66 0.68 0.69 0.70 0.63 0.57 0.49 0.44 0.50 0.47 0.52 0.58 0.68 0.80 0.94 0.98 1.03 1.10 1.10 1.13 1.19 1.23 1.28 1.37 1.44 1.47 1.47 1.49 1.49
0.49 0.38 0.46 0.44 0.57 0.57 0.52 0.58 0.52 0.50 0.40 0.47 0.37 0.42 0.37 0.37 0.38 0.35 0.34 0.29 0.30 0.31 0.30 0.29 0.29 0.26 0.28 0.26 0.28 0.29 0.33 0.32 0.34 0.34 0.34 0.35 0.38 0.42 0.46 0.47 0.50 0.54 0.57 0.51 0.52 0.48 0.46 0.42 0.49 0.50 0.49 0.53 0.61 0.60 0.67 0.69 0.63 0.66 0.62 0.64 0.71 0.68 0.66 0.61 0.52 0.47 0.56 0.47 0.39 0.56 0.67 0.65 0.75 0.93 1.01 1.05 1.11 1.14 1.16 1.19 1.22 1.31 1.43 1.48 1.51 1.51 1.52 1.53
0.38 0.49 0.60 0.71 0.49 0.46 0.47 0.47 0.56 0.53 0.55 0.52 0.43 0.46 0.39 0.37 0.37 0.32 0.33 0.32 0.32 0.33 0.29 0.30 0.29 0.29 0.29 0.28 0.29 0.26 0.30 0.31 0.32 0.30 0.34 0.36 0.37 0.41 0.40 0.45 0.45 0.48 0.48 0.46 0.50 0.45 0.42 0.37 0.49 0.53 0.54 0.61 0.67 0.67 0.68 0.69 0.67 0.68 0.69 0.65 0.64 0.71 0.65 0.57 0.55 0.58 0.55 0.45 0.40 0.59 0.69 0.66 0.81 0.95 1.06 1.12 1.18 1.17 1.19 1.21 1.28 1.37 1.50 1.56 1.56 1.52 1.51 1.51
0.56 0.54 0.51 0.72 0.53 0.59 0.59 0.61 0.61 0.58 0.53 0.52 0.48 0.46 0.41 0.39 0.37 0.37 0.34 0.30 0.30 0.30 0.31 0.26 0.26 0.29 0.30 0.32 0.30 0.27 0.30 0.27 0.29 0.32 0.32 0.33 0.35 0.37 0.36 0.39 0.44 0.47 0.46 0.44 0.46 0.50 0.44 0.42 0.46 0.53 0.51 0.59 0.63 0.64 0.60 0.60 0.62 0.66 0.67 0.69 0.69 0.70 0.75 0.70 0.61 0.63 0.58 0.52 0.56 0.64 0.70 0.71 0.88 0.97 1.10 1.18 1.28 1.29 1.29 1.31 1.33 1.35 1.45 1.53 1.54 1.54 1.52 1.52
0.46 0.44 0.42 0.52 0.54 0.56 0.61 0.64 0.63 0.59 0.51 0.55 0.45 0.45 0.43 0.42 0.38 0.40 0.39 0.32 0.29 0.30 0.31 0.27 0.29 0.31 0.32 0.32 0.30 0.27 0.31 0.29 0.29 0.28 0.33 0.33 0.34 0.35 0.35 0.37 0.37 0.42 0.45 0.42 0.42 0.48 0.42 0.43 0.52 0.53 0.49 0.52 0.59 0.58 0.57 0.57 0.59 0.55 0.63 0.70 0.72 0.73 0.79 0.78 0.72 0.69 0.68 0.63 0.66 0.68 0.68 0.70 0.96 1.12 1.18 1.29 1.33 1.37 1.37 1.29 1.27 1.32 1.41 1.49 1.50 1.53 1.57 1.56
0.66 0.68 0.66 0.45 0.34 0.42 0.56 0.62 0.59 0.57 0.52 0.53 0.46 0.49 0.46 0.46 0.42 0.44 0.40 0.38 0.32 0.30 0.30 0.28 0.31 0.32 0.33 0.32 0.30 0.28 0.31 0.29 0.29 0.29 0.32 0.33 0.31 0.36 0.34 0.36 0.40 0.37 0.41 0.41 0.41 0.44 0.42 0.44 0.52 0.51 0.43 0.46 0.56 0.55 0.55 0.58 0.57 0.54 0.56 0.63 0.68 0.73 0.72 0.75 0.71 0.76 0.66 0.61 0.68 0.69 0.63 0.69 0.96 1.16 1.23 1.27 1.27 1.27 1.26 1.30 1.30 1.31 1.37 1.42 1.45 1.53 1.54 1.57
0.77 0.82 0.77 0.63 0.39 0.50 0.42 0.53 0.57 0.52 0.47 0.54 0.54 0.54 0.49 0.50 0.51 0.49 0.38 0.37 0.35 0.34 0.34 0.33 0.34 0.32 0.32 0.31 0.30 0.30 0.32 0.31 0.30 0.31 0.32 0.34 0.37 0.38 0.39 0.40 0.40 0.39 0.39 0.39 0.44 0.40 0.41 0.41 0.40 0.43 0.39 0.45 0.55 0.57 0.51 0.54 0.54 0.49 0.52 0.64 0.69 0.72 0.85 0.88 0.86 0.83 0.82 0.84 0.71 0.61 0.65 0.89 1.04 1.18 1.14 1.17 1.22 1.23 1.29 1.30 1.32 1.37 1.40 1.41 1.41 1.46 1.51 1.57
Wind_Speed
9 10 10 10 10 9 9 9 9 10 9 9 9 9 9 9 9 9 8 9 9 9 10 10 10 10 10 10 11 11 11 11 11 10 10 10 9 10 10 9 10 11 9 9 9 8 6 6 5 5 5 4 4 3 4 4 3 3 3 3 4 3 3 4 5 5 7 10 11 10 8 9 9 7 7 7 8 8 7 7 7 7 8 10 11 12 12 11
10 10 10 10 10 10 10 9 10 10 10 10 10 10 10 10 10 10 9 9 9 9 10 10 10 10 10 10 11 11 11 11 11 11 11 10 10 10 11 10 10 11 10 10 10 9 8 7 7 6 5 4 4 3 4 4 4 4 3 4 4 4 4 5 6 6 8 11 12 11 9 9 9 8 8 7 8 8 7 7 8 10 10 11 12 12 11 11
10 11 11 11 11 11 10 10 10 10 10 10 10 10 10 10 10 10 10 10 10 10 10 10 10 10 10 10 10 10 10 10 10 10 10 10 10 11 11 11 11 11 11 10 10 10 9 8 8 7 6 4 4 4 4 4 4 4 3 4 4 5 6 6 7 7 9 12 13 11 10 10 8 8 7 7 8 8 7 8 9 11 11 12 12 12 12 11
11 11 11 11 11 11 11 11 11 11 11 11 11 11 11 11 11 11 11 11 11 10 10 10 10 10 10 10 10 10 10 9 8 9 9 9 10 11 11 11 11 11 11 10 10 10 9 9 9 8 6 5 5 4 4 4 4 4 4 4 5 5 7 6 6 7 10 13 13 12 11 10 8 7 8 9 8 6 7 9 9 12 12 13 12 12 12 11
11 12 12 12 12 12 12 12 12 11 11 11 12 12 12 12 11 11 11 11 11 11 10 10 10 10 10 10 10 9 9 8 8 9 9 9 9 10 11 11 12 11 11 11 10 10 9 10 10 8 7 6 6 5 4 4 4 4 4 4 5 5 6 5 3 7 12 13 13 12 12 10 9 8 9 9 6 5 8 9 10 12 12 12 12 12 11 11
12 12 13 13 13 13 13 13 12 12 12 12 12 12 12 12 12 12 12 12 12 11 11 11 10 10 10 10 9 9 8 8 8 9 9 8 9 10 10 11 11 11 11 10 10 10 10 11 11 9 8 7 6 6 4 4 4 4 4 4 4 5 5 3 2 8 13 13 12 12 11 11 10 8 8 7 4 5 9 10 11 11 11 12 12 12 11 10
13 13 13 13 13 13 13 13 13 13 13 13 13 13 13 13 13 12 12 12 12 12 12 11 11 10 10 9 9 8 8 8 9 9 8 8 8 9 10 11 11 11 11 10 10 10 11 12 11 9 8 7 7 6 5 5 5 5 4 3 3 4 3 1 4 9 12 12 11 11 11 11 10 9 8 6 5 7 9 10 11 11 11 12 12 11 11 10
14 14 14 14 14 14 14 14 14 14 14 14 14 14 14 13 13 13 13 13 12 12 12 11 11 10 10 9 8 8 8 8 8 8 7 7 8 9 10 10 12 12 12 11 11 11 11 12 11 10 9 8 7 6 6 5 5 6 5 3 2 3 1 2 5 8 10 10 11 11 10 9 9 9 9 8 7 8 10 11 12 12 12 12 12 11 10 10
14 14 14 14 14 15 15 15 15 15 15 15 15 14 14 14 13 13 13 13 12 12 11 11 10 10 9 8 8 8 7 7 7 7 7 7 7 8 9 10 12 13 12 12 12 12 12 12 12 11 10 9 8 7 7 6 5 5 5 3 2 2 1 4 6 7 8 9 11 11 9 8 9 9 9 8 8 9 11 12 12 13 13 12 11 11 10 9
15 15 15 15 15 15 15 15 15 15 15 15 15 14 14 14 14 13 13 12 12 11 10 10 9 9 8 8 8 7 7 7 6 6 7 7 8 9 9 10 12 12 13 12 13 13 12 12 12 11 10 9 8 8 8 7 5 4 4 3 2 2 2 5 6 6 7 8 10 11 9 9 9 10 9 9 10 10 11 12 12 13 13 12 11 10 10 9
15 15 15 15 15 16 16 16 16 16 16 15 15 14 14 14 14 13 12 11 11 10 9 9 8 8 8 8 8 7 7 7 6 6 7 8 9 9 10 10 11 12 13 13 13 13 13 12 12 12 10 9 9 8 7 7 6 5 5 3 3 3 3 5 7 7 6 7 9 11 10 9 10 10 9 10 11 11 12 13 13 13 13 12 11 10 9 9
16 16 16 16 16 16 16 16 16 16 15 15 15 14 14 14 13 12 11 10 9 9 8 8 7 7 7 7 8 7 7 7 7 7 8 9 9 10 10 11 11 12 13 14 14 14 14 12 12 12 10 9 10 9 7 7 6 6 5 5 4 4 5 6 7 8 8 7 10 12 11 11 12 11 9 12 12 12 12 13 13 14 13 12 11 10 9 9
16 16 16 17 17 17 16 16 16 16 15 15 14 14 14 13 12 11 10 9 8 8 7 7 7 7 7 7 7 7 8 8 8 8 9 10 10 10 11 11 11 12 13 14 14 15 15 13 13 12 10 10 9 8 8 7 7 6 5 6 6 6 6 6 6 9 9 9 11 12 12 13 14 12 10 13 13 13 12 12 13 13 13 13 11 10 9 9
17 17 17 17 17 17 17 16 16 15 15 14 14 14 14 12 11 10 9 8 7 7 7 6 7 7 7 7 7 8 9 9 10 10 10 11 11 11 11 11 11 13 14 14 14 14 15 15 14 13 12 10 10 9 9 8 8 7 6 6 6 7 7 6 7 9 10 10 11 13 12 13 14 13 12 14 14 13 13 12 13 13 13 13 12 11 10 9
17 17 18 18 17 17 16 16 15 14 14 14 14 13 12 11 10 8 7 6 6 6 6 6 7 7 7 7 7 8 9 10 11 11 12 12 11 11 12 12 12 13 14 15 14 14 15 16 15 14 12 11 11 11 10 9 8 8 7 7 7 7 7 7 8 9 10 11 12 13 13 12 14 14 13 14 14 13 13 13 13 13 13 13 12 11 10 9
17 18 18 17 17 16 16 15 14 13 13 13 13 11 10 9 8 6 6 5 5 6 6 6 6 6 6 6 6 7 8 10 11 11 12 13 12 12 11 12 12 12 13 15 15 14 15 16 15 14 13 12 12 12 10 10 9 8 9 8 7 8 7 7 7 8 10 11 12 14 13 12 13 14 14 15 15 13 13 13 14 14 13 13 12 11 10 9
18 18 18 17 16 15 15 14 13 12 12 12 11 9 8 7 6 5 4 5 6 6 6 6 6 6 6 7 7 8 8 10 10 10 12 13 13 12 11 11 12 12 13 14 14 14 15 16 16 14 14 13 13 12 11 11 10 10 10 9 8 7 7 6 6 8 10 11 12 14 13 12 12 14 15 16 15 14 13 13 14 14 13 13 12 11 10 10
18 18 17 17 16 15 14 13 12 11 11 10 9 7 6 6 5 4 4 5 6 6 6 6 6 7 6 7 8 9 10 10 10 10 10 11 12 12 12 12 12 12 13 14 14 15 15 16 16 15 14 14 14 13 12 11 10 10 9 9 8 7 7 7 6 8 10 10 11 14 14 13 12 14 16 16 15 15 14 14 14 14 14 13 12 12 11 10
18 17 17 16 15 14 13 12 11 10 10 8 7 6 5 6 4 3 5 6 6 6 6 6 7 7 7 8 9 10 10 10 9 9 9 10 11 12 11 11 12 13 14 15 15 15 16 15 16 16 15 15 15 15 14 10 9 9 9 8 8 7 7 7 6 8 11 10 10 13 15 13 13 14 16 16 16 15 14 14 14 14 14 14 13 12 11 11
18 17 17 16 15 14 12 11 10 9 8 7 6 5 5 6 4 4 7 6 5 6 7 6 6 7 8 8 9 9 9 8 8 8 8 9 10 11 11 11 12 13 14 15 15 15 16 17 17 17 16 16 16 16 15 12 10 9 9 9 8 7 6 6 6 8 11 10 9 12 14 14 14 15 15 16 16 15 15 15 15 15 15 14 14 13 12 12
18 17 16 15 14 13 11 10 8 7 6 5 5 5 4 5 5 5 7 7 5 7 7 6 6 8 8 8 8 8 8 8 7 7 8 8 10 10 10 11 12 13 13 14 14 14 16 18 17 16 16 16 16 17 17 15 13 12 11 10 8 7 7 6 6 8 10 10 10 11 12 14 15 15 15 16 16 16 16 16 15 16 15 14 14 14 13 13
18 17 16 15 13 12 10 9 7 6 4 4 5 4 4 5 5 6 7 7 7 7 7 7 7 8 8 8 7 7 7 8 7 6 7 7 9 10 10 11 12 12 13 13 14 14 16 17 17 16 16 16 16 17 17 16 15 13 12 11 9 8 7 6 5 7 9 10 11 11 12 13 14 13 14 16 17 16 16 16 16 16 16 15 14 14 14 14
18 17 16 14 12 10 9 8 6 4 3 4 4 4 4 5 6 6 5 6 8 7 7 8 8 8 8 7 7 6 7 7 7 6 6 7 8 9 10 10 11 11 12 13 14 15 15 16 16 17 17 17 17 17 17 16 15 14 13 12 10 9 8 7 6 5 8 9 10 11 12 13 13 13 14 16 16 15 15 15 15 16 16 16 15 14 15 15
18 17 15 13 11 9 8 7 5 4 4 5 4 3 5 6 7 7 5 6 7 7 7 8 9 8 8 7 6 6 7 7 7 6 6 6 6 8 9 9 10 11 12 13 13 14 15 14 15 16 17 17 17 17 17 16 15 14 14 13 12 11 10 8 6 5 6 9 10 11 12 13 15 15 16 15 15 15 16 16 15 16 16 16 15 15 15 16
17 16 14 12 10 9 7 6 4 4 5 5 3 4 6 7 8 6 5 6 7 8 8 8 8 8 7 7 6 7 8 8 8 7 5 6 6 7 8 9 10 11 12 12 13 13 14 14 14 15 17 18 18 18 18 17 16 14 14 14 14 12 10 9 9 7 7 9 11 12 13 13 15 18 18 17 17 17 17 17 17 16 16 16 16 16 16 16
17 16 13 11 9 8 6 4 3 4 5 4 3 5 7 8 7 6 6 6 6 8 8 7 8 8 7 8 7 7 8 8 8 7 5 6 6 6 7 8 9 10 11 12 12 13 13 14 14 15 16 18 19 19 18 18 17 15 14 15 14 12 11 11 11 9 8 8 9 12 13 12 13 18 20 19 19 20 19 18 18 17 17 17 17 16 17 17
17 15 12 10 9 7 5 4 4 4 4 4 4 6 8 8 6 5 6 6 6 7 8 8 8 8 8 8 8 8 8 9 8 6 4 5 5 6 6 7 8 9 10 11 12 12 13 14 14 15 16 17 18 19 19 19 18 16 14 14 14 12 12 12 11 9 8 8 9 11 12 11 12 16 19 20 21 21 21 20 18 17 18 18 18 17 17 17
16 14 12 10 8 6 5 5 4 4 4 4 5 7 8 7 5 5 6 6 7 7 7 8 8 8 8 8 8 8 9 8 7 5 4 4 4 5 6 7 7 8 9 11 11 11 12 13 14 16 16 16 17 17 18 20 18 17 16 14 13 12 12 12 11 10 8 8 10 11 12 11 11 12 16 20 23 23 23 22 20 18 18 19 19 18 18 18
16 14 11 9 8 6 5 5 5 4 4 5 6 7 7 5 4 5 5 6 7 7 7 8 8 8 8 8 8 9 8 7 5 4 3 4 4 4 5 6 6 7 8 9 11 10 11 12 12 14 15 15 16 16 18 20 18 17 17 15 13 12 12 11 11 11 9 9 10 12 13 11 10 11 13 19 24 24 22 21 20 19 19 20 20 19 18 18
16 14 11 9 7 6 5 5 5 4 4 5 7 7 6 4 4 5 5 6 7 7 7 8 8 8 8 8 9 9 7 6 4 3 3 4 4 4 4 5 6 7 7 8 10 11 10 10 10 12 14 14 14 14 16 18 18 19 18 16 14 12 12 11 11 11 10 9 9 11 15 13 10 10 13 16 19 22 21 20 21 20 19 20 21 20 20 18
16 14 11 9 7 6 5 5 5 4 5 6 7 6 5 5 5 5 5 6 7 8 8 8 8 8 8 8 9 8 7 6 5 3 4 4 4 4 5 6 6 6 7 8 10 10 10 10 10 11 13 13 13 13 15 17 19 20 19 17 15 13 12 12 12 11 11 9 7 9 13 14 12 9 10 12 14 19 22 22 22 22 21 21 21 21 21 20
15 14 11 8 7 7 6 5 5 5 6 6 6 6 5 5 5 6 6 7 7 7 8 8 8 8 8 8 8 8 6 5 5 4 4 4 4 5 5 6 6 6 7 8 8 8 10 11 10 9 11 14 14 13 14 16 18 20 19 19 16 13 12 12 11 11 11 10 8 8 10 12 13 11 9 11 13 16 21 23 23 23 23 22 22 22 21 21
15 13 10 8 7 7 6 6 6 6 6 6 6 6 5 5 5 5 6 6 7 7 7 8 8 8 8 7 7 7 6 5 5 4 3 4 4 4 5 5 6 6 6 6 7 7 8 9 9 9 11 14 16 15 15 16 18 20 20 19 17 14 13 12 11 11 11 10 9 9 10 11 12 11 9 12 14 15 19 23 24 24 23 23 22 22 22 22
15 12 9 8 7 7 7 7 6 6 6 6 6 5 5 5 5 5 6 6 6 7 7 7 8 8 7 7 7 6 5 4 4 3 3 3 3 3 3 4 6 6 6 6 6 6 6 7 9 10 10 13 17 16 16 15 17 20 20 19 18 16 13 12 11 11 9 8 9 9 10 9 9 8 7 9 13 16 17 21 24 24 23 23 23 22 23 23
14 10 8 8 7 7 8 7 6 6 6 6 5 5 5 5 5 5 6 6 6 7 7 7 7 7 7 6 6 5 5 4 4 3 3 3 3 3 2 3 5 6 6 6 6 6 6 6 7 9 9 12 15 15 15 15 16 18 19 19 17 16 14 12 11 11 9 9 9 10 10 9 9 8 8 7 10 14 16 18 23 25 24 24 23 23 23 24
12 9 8 7 7 6 7 7 7 6 6 6 5 5 5 5 5 5 5 6 7 7 8 7 7 7 7 6 5 5 4 4 4 3 3 3 4 3 3 3 4 6 6 6 6 6 6 6 6 7 9 12 13 13 16 16 15 16 19 19 16 14 14 13 12 11 10 10 9 10 10 9 9 8 8 8 9 11 14 17 22 25 24 24 24 24 24 24
10 9 8 7 6 6 6 7 7 7 6 6 5 5 5 5 5 5 5 6 6 7 8 7 7 7 6 6 5 4 4 4 4 4 4 4 4 3 4 5 5 6 7 7 6 6 7 7 7 6 7 9 12 13 15 15 15 15 17 18 16 14 14 14 13 12 11 10 9 9 10 9 8 7 6 8 9 10 12 15 19 23 25 25 25 25 25 25
10 9 8 7 7 6 7 7 7 7 7 6 5 5 5 5 5 6 6 5 6 6 6 7 7 6 6 5 4 4 4 4 4 4 4 4 4 3 4 5 6 6 6 7 7 7 7 7 7 7 6 7 11 14 14 15 15 14 14 16 16 15 15 13 13 12 11 10 8 9 9 8 8 8 7 8 10 10 11 13 16 22 25 26 25 25 25 25
9 8 8 8 7 7 7 7 7 8 7 6 6 5 5 6 6 6 6 5 5 5 6 6 6 6 5 4 4 4 4 4 4 4 5 4 4 4 4 5 6 7 7 8 8 7 8 8 7 6 6 7 10 14 15 16 16 14 14 15 15 14 14 13 13 12 11 10 8 8 8 7 7 7 7 8 10 11 11 11 13 19 25 26 26 26 26 25
9 8 8 8 7 7 7 7 8 8 7 6 6 6 5 6 6 7 7 6 5 5 6 6 5 6 5 4 4 4 4 4 4 4 5 4 4 4 4 5 6 7 7 7 8 7 8 8 8 6 6 8 10 12 14 16 16 16 16 16 16 14 13 13 13 14 12 11 9 8 7 7 6 6 7 9 10 11 11 10 10 15 23 27 27 27 26 25
9 8 8 8 7 7 8 8 8 8 8 7 7 6 6 6 7 7 7 6 6 6 6 5 5 6 5 4 4 4 4 4 4 4 4 4 4 3 4 5 6 6 6 7 8 8 8 8 8 7 7 9 10 11 12 14 15 15 15 16 16 15 13 12 12 12 12 11 10 9 8 7 6 5 6 7 9 11 12 10 9 12 19 26 28 27 26 25
9 9 9 8 7 8 8 8 8 8 8 8 7 7 7 7 7 7 6 6 6 6 5 5 5 6 5 4 4 4 4 4 4 4 4 3 4 3 4 6 6 6 6 6 7 8 8 8 9 8 7 8 9 10 11 13 15 15 14 14 15 15 15 14 12 10 10 10 10 9 9 8 6 5 5 6 7 9 11 11 9 10 15 22 26 27 27 27
10 9 9 8 8 8 8 8 8 8 9 8 8 8 8 7 7 7 6 6 6 6 5 5 6 6 6 6 6 6 6 4 4 4 4 4 4 4 5 6 5 6 6 6 7 8 9 8 8 9 8 7 8 10 10 11 13 14 13 13 14 15 14 15 13 10 10 11 10 10 9 8 6 5 4 4 5 7 9 11 10 10 12 17 23 27 28 28
10 10 9 9 8 8 8 8 8 8 9 9 8 8 8 7 8 8 7 6 6 5 5 6 6 6 6 7 6 6 6 5 5 5 4 4 4 4 5 6 4 5 5 6 6 7 8 8 8 9 9 9 9 10 11 10 11 12 12 13 14 13 14 14 13 11 12 12 11 10 10 8 5 5 4 3 4 5 7 9 11 11 12 15 19 24 28 28
10 10 9 9 9 8 8 8 8 8 9 9 9 8 8 8 8 8 8 7 6 5 5 6 6 6 6 6 5 5 5 5 5 4 4 5 5 4 5 6 5 4 3 4 5 6 7 8 9 10 10 10 10 10 11 11 12 12 11 12 12 13 15 15 13 12 12 12 11 11 10 8 6 4 3 4 4 4 5 7 9 10 13 15 18 21 26 29
10 9 9 9 9 9 9 8 8 9 9 9 9 8 8 8 8 8 8 7 6 6 5 6 6 6 5 5 5 4 4 4 4 4 4 5 5 4 5 6 5 4 3 2 3 4 6 6 7 9 10 10 10 9 10 11 11 11 11 11 11 13 16 16 14 13 12 11 11 11 9 8 6 4 3 4 4 4 4 5 6 9 11 15 17 20 24 28
9 9 9 9 9 9 9 9 9 9 9 9 9 9 8 8 7 7 7 7 6 6 6 6 6 6 6 5 5 4 4 4 4 4 4 5 5 5 5 5 4 5 5 3 3 4 5 6 6 7 8 9 9 8 8 8 8 9 10 10 11 13 16 18 15 13 12 11 11 10 9 9 7 4 4 4 5 5 4 3 4 6 9 13 17 19 23 26
10 9 9 10 10 9 9 9 9 10 10 10 9 9 9 8 7 7 7 6 6 6 6 6 6 6 5 5 5 5 4 4 4 4 5 5 5 5 4 3 3 4 5 4 4 4 5 6 7 8 9 10 9 8 8 8 9 9 8 9 11 12 15 18 16 13 13 12 11 9 9 9 7 5 5 4 4 5 4 2 2 4 6 10 15 18 21 25
11 10 10 10 11 10 10 10 10 10 10 10 10 10 9 8 8 8 8 7 6 7 6 6 6 6 5 4 4 4 5 5 4 5 5 5 5 5 4 4 3 3 4 4 3 3 5 6 7 8 9 10 9 8 8 8 10 11 10 9 10 11 14 15 15 14 14 12 11 11 10 9 7 6 5 4 4 4 3 2 1 1 4 8 12 16 19 23
11 11 11 11 12 12 12 11 10 10 10 10 10 10 10 9 8 8 8 8 8 7 7 6 6 5 5 5 4 4 5 5 4 5 6 5 4 5 5 5 4 3 3 3 3 3 4 6 8 8 8 9 10 9 8 8 9 11 11 10 9 11 14 14 14 14 13 11 12 12 11 9 8 7 6 5 4 3 3 1 1 1 2 5 9 14 17 20
12 12 12 12 12 12 12 11 11 11 10 10 10 10 10 10 9 8 9 9 9 8 7 6 5 5 5 6 5 4 5 6 5 5 6 5 4 4 5 5 5 4 3 3 2 2 2 5 8 8 8 9 10 10 10 10 10 9 9 10 10 11 13 14 13 12 12 13 14 13 11 9 8 7 7 5 4 2 2 1 1 2 3 4 6 11 15 19
14 13 13 13 12 12 13 12 12 12 12 11 11 11 10 10 9 9 9 8 9 9 8 6 5 5 5 6 5 6 6 6 6 5 6 6 5 5 5 5 5 4 3 3 2 2 1 3 5 7 8 10 10 10 11 11 10 9 9 10 12 13 13 13 13 11 10 13 14 13 11 10 8 8 7 6 4 3 2 2 2 2 3 4 5 8 11 16
Wind_Direction
6 4 2 360 357 355 352 350 347 346 344 342 339 336 332 328 324 319 312 306 300 297 295 294 292 291 290 288 286 282 280 275 271 266 259 255 251 241 238 239 227 221 219 211 208 209 215 219 217 220 220 231 250 251 247 250 261 278 303 319 320 307 291 266 240 224 198 189 183 184 186 163 150 149 143 140 133 131 136 133 127 121 123 131 139 146 145 145
2 0 359 357 355 353 350 346 344 342 340 338 336 333 330 327 324 320 316 310 305 300 296 294 293 292 291 290 288 286 282 273 266 261 256 255 250 242 238 236 225 217 215 210 208 208 212 215 215 218 222 236 251 252 248 249 255 267 291 308 313 309 297 278 256 235 206 192 183 182 184 171 158 153 154 148 142 141 139 137 133 125 127 133 141 148 147 147
358 357 356 355 353 351 348 346 342 340 338 336 334 331 329 325 322 318 315 311 307 302 298 295 293 292 291 291 289 287 282 270 260 253 255 258 250 241 235 231 223 216 216 215 213 213 214 213 213 218 226 243 251 248 247 249 258 264 281 300 310 311 300 281 254 231 209 193 181 179 180 173 163 158 160 150 146 154 153 149 144 138 140 142 145 151 150 149
353 352 352 351 349 347 346 343 340 338 336 334 332 330 327 324 321 317 313 310 306 302 300 296 294 293 292 291 289 286 277 263 253 250 259 264 251 237 231 227 221 217 219 220 219 219 218 214 214 219 230 242 247 246 247 245 257 265 273 298 315 315 310 295 256 217 198 189 178 175 175 171 168 164 160 151 149 164 165 158 154 148 147 148 150 153 153 149
350 348 348 346 345 343 342 340 338 335 332 331 329 327 325 323 320 317 313 310 306 303 300 297 294 293 292 292 289 282 270 257 253 258 265 264 246 231 227 223 218 218 219 219 221 220 218 216 217 222 232 239 239 241 248 241 249 265 271 292 310 315 322 323 260 193 181 180 174 172 174 173 172 166 163 160 157 166 166 161 157 153 150 151 153 154 154 150
347 345 344 343 341 340 339 338 336 332 329 328 326 324 322 320 319 316 312 309 305 302 299 297 295 294 294 292 286 276 265 258 259 265 267 257 237 226 223 220 217 218 218 218 220 219 218 219 220 223 230 237 237 240 250 241 244 264 273 286 300 313 331 356 155 168 172 175 174 175 175 176 175 167 168 167 156 157 161 160 156 154 151 151 153 154 154 153
345 343 341 340 338 337 336 335 333 331 328 326 324 322 320 319 317 314 311 308 304 301 298 295 294 293 294 291 282 270 262 263 265 267 262 245 232 225 222 219 219 219 219 219 220 222 219 219 223 223 226 233 236 241 251 245 242 258 271 285 301 314 331 45 134 153 166 174 176 175 175 180 179 170 173 167 149 155 158 160 157 152 150 150 153 156 156 155
342 340 339 337 335 334 333 332 331 329 327 325 323 322 320 318 316 313 310 307 304 301 298 294 291 291 293 289 280 269 261 265 269 265 251 237 231 225 222 223 224 222 221 222 221 223 220 219 222 221 226 232 233 241 247 245 242 248 262 275 296 310 324 135 145 152 163 172 176 174 174 182 179 171 177 170 154 156 157 159 159 153 151 152 155 158 157 156
339 337 336 334 332 331 330 329 328 327 326 324 322 321 319 317 315 313 310 308 306 303 300 295 291 290 289 284 277 266 259 265 268 258 244 237 233 228 229 230 228 223 223 225 224 222 222 222 221 221 229 230 232 245 244 246 249 242 250 254 249 282 223 157 161 164 167 173 179 180 179 180 177 175 180 174 159 157 158 159 160 156 154 156 158 159 159 157
337 335 333 331 330 329 328 327 326 325 323 322 321 319 317 316 314 312 310 309 308 306 302 298 293 290 287 281 274 262 255 262 265 255 244 239 235 232 236 234 231 228 225 227 226 224 224 224 222 224 231 230 236 250 244 244 251 232 228 234 238 260 224 185 179 179 177 180 186 188 187 184 183 188 188 175 163 159 158 159 161 159 157 160 160 161 162 160
335 333 331 329 328 327 326 325 324 323 322 321 320 318 316 314 313 312 312 311 309 307 304 299 295 290 286 280 273 264 256 257 261 256 247 243 240 237 238 236 233 232 228 229 229 226 224 224 223 225 231 235 239 246 241 240 241 222 217 225 250 264 231 203 196 195 196 196 197 191 190 192 191 196 192 175 168 164 160 160 164 163 160 162 164 164 165 163
333 331 329 327 326 326 324 323 322 321 320 319 318 317 316 314 314 314 313 312 309 308 305 301 298 293 289 279 267 261 257 255 259 257 251 247 246 244 242 239 236 234 231 231 231 228 225 223 224 226 231 237 239 241 241 239 232 223 231 239 249 258 236 217 209 209 212 209 201 193 194 200 197 195 187 175 171 167 163 162 166 166 163 165 167 167 168 167
331 329 327 326 325 324 323 322 320 319 318 318 318 317 316 316 316 315 314 310 309 311 309 305 304 298 293 281 265 257 254 255 258 257 253 249 248 248 246 242 239 235 232 230 231 229 225 223 226 227 231 239 239 236 235 234 231 227 242 246 244 248 236 230 226 218 216 212 204 198 200 203 197 193 184 176 171 167 166 166 167 169 166 167 171 171 171 171
329 327 326 325 325 323 322 321 320 319 318 319 318 319 319 319 318 316 313 308 308 314 313 312 312 305 295 283 270 261 257 258 260 257 254 248 245 247 247 245 241 236 232 229 229 231 226 222 226 228 232 239 235 228 227 232 234 232 240 244 244 246 236 240 240 222 213 210 208 204 204 201 194 192 185 178 174 170 170 169 168 171 170 169 174 175 174 174
329 327 326 325 324 323 323 322 320 320 320 321 322 322 323 322 320 317 314 310 309 317 319 318 317 309 298 290 279 272 266 264 265 261 255 247 244 246 245 242 241 236 232 228 227 230 225 219 225 230 231 232 229 227 229 232 234 234 239 241 245 247 242 245 241 226 215 207 206 205 202 199 193 191 188 183 180 176 175 173 170 172 174 173 175 178 177 178
329 328 327 326 325 324 324 323 322 322 324 325 326 327 327 326 324 321 321 321 321 325 323 320 323 314 302 299 291 282 276 272 270 265 256 249 245 245 241 238 238 236 232 228 227 229 223 219 225 231 232 230 226 228 231 233 234 235 238 242 245 247 246 242 232 227 218 203 204 205 199 199 196 192 191 188 186 182 179 178 174 174 176 177 178 180 180 182
330 329 328 327 326 326 326 325 325 326 327 329 331 332 333 332 332 334 337 333 329 328 323 321 325 316 304 302 297 293 288 282 277 268 257 251 245 240 239 240 237 235 233 227 226 226 223 222 226 229 232 230 226 227 229 233 235 232 234 240 246 248 247 240 223 219 215 202 203 204 199 203 202 193 191 190 188 186 182 181 179 177 178 180 181 183 183 184
332 331 330 329 328 328 327 327 327 329 331 333 335 337 340 344 349 355 353 342 336 332 326 324 323 316 306 303 301 299 294 288 282 272 259 250 244 240 242 242 236 232 232 228 227 227 225 226 228 228 229 227 224 224 225 232 236 232 233 239 243 246 245 238 220 210 208 202 201 200 199 203 201 191 190 191 189 187 185 184 182 180 180 183 185 186 186 186
333 332 331 331 330 329 329 328 328 332 335 339 342 344 351 358 1 5 357 349 344 341 334 326 323 319 313 309 306 302 298 292 284 275 260 246 242 242 242 241 234 232 232 230 229 228 226 225 225 226 226 224 222 222 223 229 232 228 231 235 239 243 242 236 227 211 204 202 198 197 198 199 197 193 192 192 191 190 188 185 184 183 183 186 189 189 189 189
334 333 332 332 331 329 328 328 329 333 339 345 350 348 352 355 356 356 352 348 345 343 338 331 325 320 319 320 316 311 305 298 290 278 261 245 239 239 241 241 237 235 233 230 228 228 227 224 223 224 224 223 222 222 223 227 228 230 234 236 237 240 239 237 229 213 205 204 199 196 197 198 197 196 196 195 193 193 190 187 187 185 185 189 191 190 192 192
335 334 333 332 330 328 327 326 328 334 342 349 352 354 357 354 351 346 344 344 344 342 337 336 331 321 323 327 323 321 315 306 302 285 265 248 238 239 243 241 236 234 234 231 228 227 226 224 224 224 224 224 223 222 224 227 232 237 239 238 239 238 236 237 232 220 213 211 205 198 197 198 197 198 199 197 196 197 193 190 190 187 187 191 192 192 193 191
336 335 333 333 331 327 325 324 326 335 346 351 354 4 8 359 349 340 337 335 337 342 342 340 336 328 327 327 322 324 322 315 312 295 271 250 243 246 242 239 237 232 231 230 226 224 224 225 225 225 223 222 221 221 222 226 232 235 235 236 237 232 227 229 232 230 223 216 210 203 198 198 198 199 200 199 200 200 196 193 193 189 188 191 192 192 193 189
336 335 334 333 330 327 323 322 326 334 345 346 352 5 4 356 349 344 338 330 331 341 347 344 340 335 334 332 326 327 327 323 320 304 275 250 247 245 235 234 237 230 227 227 224 224 224 224 224 222 220 219 220 220 219 224 228 229 231 233 230 223 226 230 225 230 229 219 210 205 202 202 202 203 203 202 203 201 198 197 196 192 191 192 193 194 195 192
336 335 334 333 331 326 322 320 321 325 335 338 341 352 352 350 348 345 342 337 335 338 341 343 343 341 341 341 337 335 335 329 321 309 281 254 247 242 234 233 233 229 227 225 223 224 225 223 220 219 219 220 221 219 219 223 225 225 225 227 228 224 228 231 218 221 230 219 210 206 207 211 209 209 208 205 206 204 201 199 198 196 194 194 194 196 197 196
335 334 334 333 331 327 321 315 312 318 330 335 334 337 341 344 344 341 342 344 344 343 343 344 345 345 347 350 347 338 337 331 320 310 283 253 242 242 238 234 234 231 225 222 222 225 227 224 217 218 220 219 221 222 221 222 224 224 219 221 229 226 221 217 210 213 220 218 214 209 211 215 212 213 213 209 209 208 203 202 201 199 196 195 195 196 198 198
334 333 333 332 330 326 320 314 311 318 328 335 336 335 334 337 339 340 346 348 351 353 352 350 350 349 347 349 347 338 336 335 326 313 283 253 242 243 238 233 237 233 224 222 226 228 227 222 218 218 220 219 222 225 221 218 224 225 217 218 225 222 212 210 212 218 220 219 216 211 213 219 216 216 216 213 213 211 206 204 204 200 196 196 196 195 196 197
332 331 330 330 328 323 317 312 312 316 326 336 337 332 330 331 334 335 339 347 354 354 352 351 354 354 349 347 347 341 337 335 331 317 283 254 242 246 242 234 234 232 225 224 227 228 225 223 222 221 222 221 223 225 219 216 222 223 216 215 217 215 210 210 215 222 226 224 219 214 216 222 224 219 215 213 215 213 209 206 204 201 198 197 196 194 195 196
331 329 326 325 322 314 306 303 303 309 323 336 335 331 330 331 336 335 333 344 351 347 347 349 349 350 349 348 344 339 337 334 329 318 286 253 240 250 247 235 229 225 225 226 226 226 225 224 223 222 223 224 224 224 217 213 219 219 212 209 210 211 210 211 217 222 226 229 225 219 216 222 228 221 214 213 215 214 211 208 206 202 198 197 197 195 194 195
328 326 322 318 313 303 296 293 292 305 320 331 333 332 332 331 332 337 337 345 346 341 342 342 341 344 345 346 343 337 335 331 325 313 284 254 247 258 250 234 226 222 225 229 227 227 228 228 225 222 223 225 223 221 214 211 214 212 205 203 208 212 211 213 218 219 220 229 231 221 214 221 231 222 212 212 214 214 211 208 207 204 199 197 197 195 193 194
326 323 317 310 303 293 289 286 283 294 311 323 331 334 337 336 330 334 341 345 343 340 338 335 336 340 339 338 341 340 333 324 320 305 280 267 260 264 257 242 232 227 229 234 231 230 231 229 227 225 223 221 217 216 215 210 204 202 202 202 208 214 214 215 217 218 221 229 236 225 214 220 234 227 216 213 213 213 210 207 208 206 200 198 197 195 193 194
323 319 313 303 295 285 280 284 280 286 304 317 328 330 332 338 338 337 339 340 338 339 339 336 335 338 337 333 335 339 335 324 320 298 280 279 266 263 260 246 236 232 234 235 233 233 234 228 228 229 222 213 209 212 215 207 198 202 206 205 211 217 214 214 213 217 225 228 234 227 214 218 230 229 221 217 214 211 208 206 206 206 202 198 197 195 194 195
320 317 309 295 287 278 272 275 280 287 299 311 322 324 319 326 334 334 333 334 336 339 342 341 337 336 337 334 331 335 333 326 325 305 290 289 270 261 259 247 237 236 237 232 231 238 238 228 225 228 219 209 208 210 212 208 205 207 207 205 212 219 216 215 213 217 226 228 231 225 213 221 234 236 227 219 214 210 208 206 203 204 202 198 197 195 194 195
318 315 307 291 279 274 271 272 278 285 294 305 314 318 319 324 330 329 330 333 336 340 340 339 339 336 335 334 330 330 327 322 326 316 304 303 283 268 260 243 233 236 236 230 235 244 239 223 215 220 220 213 211 211 211 211 211 209 205 205 211 215 215 215 213 219 226 226 229 223 215 227 239 239 229 219 216 212 208 206 204 203 201 198 197 197 195 196
318 314 307 293 277 271 270 272 277 280 289 302 307 310 315 321 324 324 326 327 329 334 336 336 337 337 338 334 327 328 323 317 321 315 309 303 284 279 268 233 224 230 230 229 237 239 232 220 212 218 221 214 214 216 213 209 210 210 205 207 213 214 214 216 213 216 223 222 221 215 215 227 231 228 228 223 218 214 209 206 205 205 201 198 198 198 197 197
318 312 307 298 283 271 266 266 270 274 285 299 304 307 307 310 318 321 322 324 326 330 332 334 336 334 336 331 322 325 325 323 326 314 313 308 280 281 275 232 222 225 224 226 230 229 228 224 220 227 224 214 215 216 210 205 206 207 205 208 214 215 215 217 215 215 221 226 220 213 222 233 232 229 230 225 217 213 209 205 205 206 202 198 198 198 198 197
316 310 305 299 287 274 264 260 261 267 282 293 296 302 302 303 312 315 318 322 326 330 328 333 338 332 330 323 314 319 321 327 332 315 308 304 282 268 261 242 222 220 223 225 226 226 228 223 224 235 227 219 217 207 203 206 203 202 205 208 212 214 212 214 215 214 219 228 223 217 229 239 238 237 229 218 212 207 206 205 205 204 202 200 200 199 198 197
313 307 303 298 288 274 264 257 254 263 279 286 286 293 294 297 303 303 308 317 322 328 329 333 338 332 326 319 311 314 310 309 317 311 307 300 279 252 252 248 226 224 228 228 230 231 230 225 228 242 236 226 218 202 200 208 205 203 207 207 208 212 212 213 216 214 217 226 223 219 232 242 237 233 225 216 210 204 203 205 205 203 201 202 202 199 198 197
311 303 299 298 288 273 263 255 253 263 274 278 280 285 287 292 298 296 298 309 318 326 329 331 335 333 328 320 314 314 303 296 306 309 308 300 276 250 258 250 233 238 235 226 232 234 231 228 228 239 244 223 210 201 200 206 207 207 206 204 206 210 210 210 214 216 217 222 223 220 228 236 233 235 238 228 218 210 206 207 207 204 202 203 201 198 197 198
306 299 299 300 287 271 262 258 259 267 269 270 275 279 281 283 287 287 288 299 312 322 326 328 332 330 323 314 308 308 299 292 297 304 305 297 272 253 261 251 241 251 244 229 233 234 231 230 226 234 243 222 208 207 204 200 201 203 202 203 207 209 208 208 215 223 222 220 223 223 221 221 227 242 251 244 228 213 206 209 212 207 203 203 200 198 199 199
301 296 298 299 284 266 263 264 265 267 264 262 267 271 274 277 283 283 281 287 299 312 321 326 328 323 316 307 298 294 296 292 287 297 302 289 268 255 258 254 248 253 250 239 236 234 231 230 227 233 234 222 214 212 208 202 201 203 202 202 205 204 202 205 217 227 225 222 225 227 222 215 221 243 253 248 233 215 206 208 212 207 203 201 200 199 200 201
296 292 293 295 280 265 267 269 267 264 259 257 258 261 267 274 281 285 281 281 288 300 313 318 319 317 313 308 297 287 290 289 282 294 297 277 266 272 271 261 253 254 250 239 235 234 231 229 230 233 231 226 220 214 213 209 204 203 205 205 205 202 200 203 214 219 218 221 225 227 227 221 224 245 252 246 233 218 209 205 206 204 200 200 201 201 200 201
294 289 290 289 275 267 272 271 266 262 256 255 255 258 268 271 273 282 284 281 285 295 308 312 311 311 309 305 300 293 289 282 277 288 290 271 259 267 282 275 262 260 252 241 241 238 232 231 232 231 232 232 223 211 212 213 203 201 209 210 205 205 207 210 213 213 216 222 223 226 229 224 228 250 254 243 232 221 211 205 201 200 200 202 204 204 203 203
295 289 288 284 270 269 275 268 264 260 254 255 257 258 265 266 268 278 281 281 286 294 303 305 303 304 303 298 294 291 286 274 269 276 282 278 260 256 282 286 269 261 257 248 245 238 232 232 230 225 222 218 207 199 203 209 203 203 211 211 208 211 212 212 215 220 228 228 222 226 228 220 228 251 253 241 228 217 211 207 204 200 200 204 206 207 207 205
294 285 285 282 270 270 274 266 261 259 256 257 257 260 264 261 263 271 274 278 286 291 298 299 298 300 300 296 293 289 280 266 261 267 271 275 266 263 286 292 276 264 260 252 247 239 234 232 225 220 217 208 201 200 204 209 208 210 215 215 216 216 209 208 216 223 227 226 223 229 230 220 227 247 247 238 226 215 212 214 213 209 206 207 207 207 207 206
293 281 280 281 273 270 271 267 263 259 258 257 256 261 266 260 260 264 266 273 280 283 293 295 296 303 304 298 295 289 280 268 260 262 263 267 271 275 286 289 287 280 263 254 259 248 234 230 224 219 216 211 207 208 211 217 220 220 220 219 221 217 208 207 216 218 218 219 220 227 229 219 222 243 248 244 239 229 223 219 221 221 216 212 209 205 204 204
294 281 280 281 276 271 269 269 268 263 258 257 254 256 259 259 265 265 260 265 274 279 291 297 301 308 303 295 295 293 290 278 263 261 264 268 272 275 283 288 288 286 272 256 268 250 227 226 223 211 207 207 206 208 215 222 224 225 226 224 223 218 209 208 215 217 217 220 221 224 224 214 213 231 245 245 242 236 236 231 229 231 224 214 208 204 202 202
295 283 280 280 278 274 268 267 270 267 259 256 255 254 253 256 267 269 259 261 272 276 284 293 301 304 295 285 283 280 282 281 271 267 270 273 270 265 276 291 292 290 288 284 279 252 224 221 217 199 194 197 199 203 213 221 224 225 228 229 227 220 211 209 216 218 216 222 222 216 213 209 208 216 231 241 240 234 240 247 243 241 227 211 204 201 199 199
297 286 279 277 276 273 269 268 272 270 261 256 253 252 252 254 262 268 264 264 270 271 274 283 293 300 294 283 277 272 268 269 271 270 270 274 268 255 262 285 292 299 301 299 289 254 227 221 215 200 191 194 201 209 212 215 224 227 228 229 230 225 215 213 217 218 219 223 219 207 202 202 203 207 216 230 237 233 236 248 256 242 215 200 197 195 195 197
297 290 281 277 274 270 270 271 271 268 261 256 253 249 248 253 259 264 262 261 265 268 271 275 284 292 288 281 280 273 261 257 262 265 265 269 265 249 246 258 266 289 299 298 295 260 237 221 209 202 196 197 206 210 203 207 224 229 228 228 231 229 221 215 212 211 215 216 208 197 193 192 197 203 206 217 225 223 223 225 247 228 199 191 191 192 192 194
295 291 285 281 274 268 268 268 266 265 261 256 253 249 247 250 257 261 258 254 257 264 264 263 271 282 281 278 276 266 257 257 266 265 255 255 259 247 242 248 253 272 290 290 297 279 247 219 209 212 209 207 210 209 204 217 229 227 223 224 227 229 224 213 203 201 204 202 195 190 186 188 197 197 192 197 201 197 201 191 100 94 163 178 187 191 191 192
294 289 286 282 275 268 266 263 261 261 259 254 251 250 248 249 253 258 258 252 250 258 258 248 252 272 282 281 273 260 253 253 264 267 250 248 259 253 245 248 251 259 273 280 297 302 265 225 220 224 221 213 212 213 218 229 230 222 220 221 223 229 224 210 200 200 201 195 190 187 187 190 194 190 185 183 178 171 177 167 123 100 107 132 166 181 188 191
292 287 283 279 275 271 267 263 259 257 256 253 250 249 250 251 252 255 259 252 248 257 255 236 234 262 278 273 262 258 256 253 263 273 259 254 260 255 245 244 249 259 262 260 278 290 261 228 224 229 225 212 211 218 224 229 227 220 221 221 222 229 227 210 200 200 200 195 192 192 190 188 185 185 186 180 169 163 166 165 153 120 106 110 132 155 173 183